Location: Anaheim Mobile Home Estates
(33.8153°N, 117.9967°W)
Time: 17:35:50
(UTC+00:00)

Cosmos 1538 Rocket - Pass Details

Date: 05 August 2024
Orbit: 749 x 790 km, 74.0° (Epoch: 06 September)

Event Time Altitude Azimuth Distance (km) Brightness Sun altitude
Rises 12:37:47 0° 190° (S) 3,193 6.9 -6.5°
Reaches altitude 10° 12:40:07 10° 188° (S) 2,277 6.1 -6.0°
Maximum altitude 12:45:16 72° 105° (ESE) 802 4.3 -5.0°
Drops below altitude 10° 12:50:30 10° 21° (NNE) 2,318 7.2 -4.0°
Sets 12:52:54 0° 20° (NNE) 3,255 8.0 -3.6°
